Weather Service Report


057 
ASUS46 KSTO 260409
RWRCA 

NORTHERN AND CENTRAL CA REGIONAL WEATHER ROUNDUP
NATIONAL WEATHER SERVICE SACRAMENTO CA 
800 PM PST SUN JAN 25 2015

NOTE: FAIR INDICATES FEW OR NO CLOUDS BELOW 12,000 FEET WITH NO
SIGNIFICANT WEATHER AND/OR OBSTRUCTIONS TO VISIBILITY.

CAZ001-003-260500-
NORTHWEST AREA
  
CITY           SKY/WX    TMP DP  RH WIND       PRES   REMARKS
CRESCENT CITY  CLEAR     51  46  83 CALM      30.01S HAZE             
ARCATA         NOT AVBL                                               
SHELTER COVE   NOT AVBL                                               
UKIAH          CLEAR     53  46  77 CALM      30.04R                  
$$

CAZ006-505>513-260500-
BAY AREA
  
CITY           SKY/WX    TMP DP  RH WIND       PRES   REMARKS
SANTA ROSA     CLEAR     48  46  93 CALM      30.03R                  
SAN RAFAEL     N/A       54  MM  MM MISG
NAPA           CLEAR     43  41  93 N5        30.04S                  
CONCORD        CLEAR     49  44  83 CALM      30.05R                  
OAKLAND CITY   N/A       56  MM  MM MISG
OAKLAND        CLEAR     50  43  77 NE5       30.04R                  
SAN FRAN CITY  N/A       57  MM  61 MISG
SAN FRAN ARPT  CLEAR     56  49  77 CALM      30.03S                  
LIVERMORE      CLEAR     46  37  71 NE5       30.05R                  
HAYWARD        CLEAR     56  39  53 E6        30.03S                  
REDWOOD CITY   N/A       MM  MM  MM MISG
MOFFETT ARPT   CLEAR     54  43  66 CALM      30.04S                  
SAN JOSE ARPT  CLEAR     54  41  61 CALM      30.04R                  
$$
CAZ034-037-514>518-260500-
CENTRAL COAST
  
CITY           SKY/WX    TMP DP  RH WIND       PRES   REMARKS
WATSONVILLE    CLEAR     60  42  51 CALM      30.03R                  
SALINAS        CLEAR     59  36  42 CALM      30.02R                  
MONTEREY       CLEAR     56  30  37 CALM      30.02R                  
PT PIEDRAS BLS NOT AVBL                                               
SAN LUIS OBISP MOCLDY    59  37  44 E3        30.03R                  
SANTA MARIA    PTCLDY    57  37  47 SE3       30.04R                  
$$
CAZ015-016-260500-
NORTHERN SACRAMENTO VALLEY
  
CITY           SKY/WX    TMP DP  RH WIND       PRES   REMARKS
REDDING        CLEAR     54  47  77 W3        30.02R                  
RED BLUFF      CLEAR     50  45  83 S3        30.04R                  
OROVILLE       CLEAR     47  43  86 SE5       30.06R                  
$$
CAZ016>018-260500-
SOUTHERN SACRAMENTO VALLEY
  
CITY           SKY/WX    TMP DP  RH WIND       PRES   REMARKS
AUBURN         CLEAR     46  41  81 CALM      30.27R                  
BEALE AFB      CLEAR     44  44 100 SE5       30.04R FOG              
LINCOLN        FAIR      46  45  93 E3        30.05R                  
MARYSVILLE     CLEAR     44  42  93 SE3       30.06R FOG              
SAC INTL ARPT  CLEAR     50  45  83 S7        30.06R                  
MATHER AIRPORT CLEAR     45  45 100 SE6       30.06R                  
DOWNTOWN SAC   N/A       50  MM  MM MISG
SAC EXEC ARPT  CLEAR     49  44  83 S3        30.06R                  
VACAVILLE      CLEAR     45  41  86 CALM      30.06R                  
TRAVIS AFB     CLEAR     44  42  94 CALM      30.04R                  
$$
CAZ019>021-260500-
SAN JOAQUIN VALLEY
  
CITY           SKY/WX    TMP DP  RH WIND       PRES   REMARKS
STOCKTON       CLEAR     42  39  89 SE5       30.06R FOG              
MODESTO        CLEAR     43  40  89 CALM      30.07S                  
MERCED         FOG       38  36  92 SE3       30.08R VSB 1/4          
LEMOORE        PTCLDY    40  37  89 S10       30.09S FOG     WCI  33  
FRESNO         CLEAR     45  41  86 CALM      30.08R                  
HANFORD        FOG       39  38  96 S5        30.10R VSB 1/4          
PORTERVILLE    MOCLDY    39  36  87 CALM      30.08F                  
BAKERSFIELD    CLOUDY    48  43  82 CALM      30.08S HAZE             
$$
CAZ011-012-071-260500-
NORTHERN MOUNTAINS
  
CITY           SKY/WX    TMP DP  RH WIND       PRES   REMARKS
YREKA          CLEAR     39  35  86 CALM      30.14F                  
MOUNT SHASTA   CLEAR     43  36  76 VRB3      30.14R                  
ALTURAS        CLEAR     46  33  60 E5        30.26R                  
$$
CAZ011-012-071-260500-
SIERRA NEVADA MTNS
  
CITY           SKY/WX    TMP DP  RH WIND       PRES   REMARKS
BLUE CANYON    CLEAR     62  17  17 E10G17    30.20S                  
TRUCKEE        CLEAR     32  23  69 SW3       30.32R                  
TAHOE VLY ARPT CLEAR     37  24  59 CALM      30.32R                  
MAMMOTH LAKES  FAIR      46  16  29 E5        30.34F                  
$$
  

Return to Home page


Western Regional Climate Center, wrcc@dri.edu